RH
9 10 14 22 20 23 19 21 19 24 50 76 71 62 57 75 61 68 99 100 100 97 73 67 68 67 67 64 65 59 58 55 52 48 46 48 59 63 66 70 71 68 70 63 60 60 60 58 56
9 10 18 23 21 17 18 19 26 56 73 74 70 73 73 86 94 99 100 100 99 99 86 79 70 70 70 69 64 62 63 60 61 59 58 55 54 65 81 91 91 90 83 81 75 72 70 64 60
8 10 17 25 28 17 18 18 60 65 65 59 68 79 84 95 99 98 100 100 100 100 96 84 78 79 78 79 68 62 66 62 63 64 66 66 66 67 71 76 77 75 78 80 78 76 75 70 62
8 15 21 23 24 23 20 17 46 62 60 57 72 72 87 92 95 93 99 100 100 100 99 95 88 79 72 74 70 69 72 60 63 65 66 66 68 70 73 75 75 74 74 74 72 69 68 66 63
8 14 20 24 24 21 19 17 31 60 54 62 66 78 85 93 94 99 100 100 100 89 93 98 95 87 80 83 80 72 64 59 66 64 65 70 73 76 75 75 75 76 76 76 74 73 69 64 63
10 16 18 19 17 14 14 22 39 53 56 67 65 77 86 93 96 97 100 100 97 90 89 99 98 94 88 86 71 57 48 40 37 34 39 42 46 54 58 69 71 77 80 81 80 79 79 77 74
12 14 16 16 16 16 15 18 41 49 58 55 69 68 91 97 100 93 98 96 93 94 99 96 95 91 82 67 52 37 22 15 12 12 12 11 12 12 14 14 16 18 22 30 43 68 82 83 82
11 14 16 16 15 16 13 21 31 36 44 63 64 56 79 95 98 90 91 94 94 94 93 86 78 71 61 50 28 14 12 12 12 12 11 12 13 13 13 14 13 12 13 12 13 12 13 18 39
11 13 16 15 16 13 11 16 30 34 52 57 56 61 66 86 94 88 85 85 88 88 77 76 65 57 37 19 14 13 13 14 13 12 13 14 14 14 14 13 14 14 14 14 14 13 12 13 14
11 14 14 12 12 11 11 14 27 35 44 49 58 62 64 84 90 85 82 79 78 79 68 54 36 25 20 18 17 17 15 14 14 14 15 15 15 14 15 15 15 14 15 16 15 15 16 14 14
15 14 13 13 13 12 10 10 20 27 28 36 50 62 75 86 88 85 79 69 67 52 36 28 24 22 22 20 18 16 16 15 15 15 15 15 16 16 16 17 17 17 18 18 18 18 18 18 16
17 16 14 14 14 14 12 11 17 26 20 19 26 40 69 86 85 81 72 59 48 34 28 26 25 24 24 22 20 18 17 17 17 17 17 17 18 18 18 18 18 19 20 19 19 19 19 19 19
16 16 16 14 13 13 13 12 12 15 13 17 23 46 70 83 81 73 61 50 39 34 30 29 26 24 22 20 19 18 19 19 19 19 20 21 22 22 21 21 20 19 18 18 18 18 19 18 18
18 19 18 16 14 14 14 14 16 19 18 23 34 57 76 80 76 64 53 46 41 38 34 31 29 26 24 22 22 22 22 23 23 24 24 24 23 22 20 18 16 16 16 16 16 16 18 19 19
22 20 17 14 15 13 14 12 16 17 36 59 75 75 78 77 68 61 51 45 42 38 35 32 29 28 26 26 26 26 27 27 28 27 26 24 20 15 13 13 14 16 18 22 24 24 23 24 25
21 20 16 13 15 12 13 15 13 30 57 69 73 76 78 70 60 54 50 46 43 40 36 33 30 29 30 30 30 31 30 28 28 26 22 16 13 14 15 17 19 22 23 23 25 28 31 32 34
20 13 20 20 17 17 14 16 13 38 57 61 66 71 74 65 59 56 53 49 45 41 38 35 33 34 33 32 32 31 30 29 26 19 13 12 14 16 17 19 20 20 20 22 27 32 37 40 41
15 23 25 26 20 19 19 18 15 32 48 51 57 64 67 62 61 59 56 52 46 42 39 38 38 36 34 33 32 32 30 26 17 11 10 12 14 18 19 21 20 18 18 22 25 32 43 52 54
26 29 30 26 22 23 23 21 16 19 37 46 52 58 63 70 63 60 57 52 47 42 41 41 39 36 34 33 33 33 27 16 10 8 9 10 12 14 18 20 20 16 15 23 26 30 35 55 66
32 32 30 27 23 24 23 23 19 21 28 36 45 56 64 62 62 62 60 54 49 46 47 45 41 36 32 32 32 27 16 10 7 6 7 7 7 6 6 11 18 15 15 21 24 31 39 54 76
28 30 30 27 24 23 25 22 20 27 41 43 46 50 58 60 64 67 64 57 54 53 50 47 42 34 29 27 21 15 11 8 6 6 6 5 5 5 5 5 8 10 18 22 23 35 55 61 73
37 27 27 27 28 28 26 28 23 22 33 47 49 56 62 74 82 75 68 60 55 52 52 50 43 32 24 21 16 12 10 7 6 5 5 5 5 5 4 4 4 6 16 19 20 38 61 67 72
27 26 28 27 29 32 28 30 22 34 28 44 55 62 71 78 76 70 65 58 53 54 54 52 47 38 23 17 16 12 8 6 5 5 5 5 5 4 4 3 4 6 8 8 16 35 57 67 76
26 27 35 40 36 38 28 28 23 30 37 51 57 66 74 83 79 68 64 58 58 60 58 53 50 43 30 20 12 8 6 5 5 5 5 5 4 4 3 3 4 4 4 5 10 30 45 56 75
26 30 38 40 45 31 34 34 24 30 50 52 54 63 76 80 80 70 64 61 64 65 61 61 57 47 33 19 11 7 6 6 6 6 6 5 4 4 3 3 4 4 4 4 6 10 23 38 56
30 30 37 41 36 31 35 36 33 52 57 57 61 64 76 82 82 72 68 71 70 66 64 65 63 53 34 17 10 7 7 8 8 7 6 5 4 4 3 4 4 4 4 4 4 5 7 17 42
34 36 30 38 45 47 32 35 34 58 54 62 61 69 78 80 82 83 75 69 68 67 67 68 64 56 32 16 10 9 10 10 10 9 7 6 5 4 4 4 4 4 4 4 4 5 6 8 29
26 26 40 47 47 52 42 38 38 40 46 58 76 68 68 70 78 75 69 70 70 68 69 71 66 55 28 15 9 9 12 13 14 10 7 6 5 5 4 4 4 4 4 4 4 5 6 7 10
26 29 38 39 52 43 48 42 46 43 45 74 67 58 54 65 65 68 68 69 70 71 71 71 66 53 25 13 10 14 18 19 15 11 7 6 6 7 6 4 4 5 5 5 5 5 6 6 9
33 30 30 39 30 52 58 56 44 62 64 61 60 59 54 53 60 62 63 67 72 73 73 71 65 43 21 13 16 21 22 20 17 12 7 6 8 10 8 5 5 6 7 7 6 6 7 7 8
Wind_Speed
6 7 4 1 2 1 2 2 2 3 3 0 3 4 8 6 4 2 11 19 19 19 17 14 12 12 12 11 10 8 8 7 6 5 5 5 6 5 5 5 5 4 4 5 5 6 7 7 8
7 4 1 2 1 2 2 2 3 2 4 11 9 6 4 4 4 10 13 19 20 19 16 14 15 14 12 11 11 8 7 7 5 4 4 3 4 5 5 5 5 4 5 6 6 7 8 9 9
8 3 2 3 2 3 2 2 3 10 3 4 5 5 4 6 11 17 15 19 18 18 15 15 14 13 10 9 9 8 6 6 5 5 5 5 5 6 6 7 8 8 8 9 9 9 11 12 10
4 1 5 1 3 4 3 1 2 9 2 3 7 6 6 7 13 12 18 16 16 14 14 13 13 11 10 9 8 8 7 5 4 3 4 5 6 7 8 9 9 10 11 13 13 13 14 14 13
2 2 2 0 3 4 3 5 5 8 4 6 4 5 4 9 12 17 19 16 14 14 12 12 12 12 12 10 8 7 5 4 3 3 3 4 5 7 8 10 11 12 13 14 14 15 16 16 15
0 2 1 2 3 4 4 2 3 6 3 7 6 9 6 10 14 17 17 16 14 10 13 14 13 12 12 11 9 6 4 2 2 3 4 4 5 6 8 9 11 12 14 15 16 17 18 19 19
3 2 2 3 2 3 2 2 4 4 2 2 7 5 7 15 17 17 16 15 15 14 12 13 12 11 10 8 6 4 3 3 3 3 4 5 6 8 9 10 11 12 13 15 16 17 18 19 21
3 2 3 3 1 1 1 3 7 2 3 6 6 4 6 20 22 20 17 15 13 12 11 10 9 7 6 6 6 5 4 4 4 5 6 7 8 9 10 12 13 15 15 16 17 19 19 21 21
4 2 2 3 4 2 3 1 3 5 8 6 7 4 5 27 26 21 18 14 12 13 12 11 8 7 7 6 5 5 5 5 6 6 7 8 10 12 13 15 16 17 19 21 21 22 24 23 24
2 2 6 3 2 1 4 3 5 6 6 6 6 8 10 29 28 25 21 16 14 12 11 9 8 6 5 5 3 3 4 5 6 7 8 10 12 14 16 18 19 21 22 21 23 24 24 26 28
1 3 3 2 4 0 2 3 2 4 6 10 10 16 20 30 26 22 20 18 15 13 11 9 7 5 3 3 4 5 6 7 9 10 12 14 15 17 18 19 20 21 21 22 22 22 24 25 27
2 3 2 1 2 3 3 2 3 7 3 1 7 13 24 31 28 25 22 18 16 14 11 8 5 3 2 3 5 7 8 9 11 13 14 15 17 18 19 21 22 23 23 23 23 25 25 25 26
3 0 4 7 15 11 5 9 6 8 11 11 9 17 25 28 26 24 22 19 15 12 9 5 2 2 4 6 7 8 9 10 11 13 15 16 17 18 19 20 21 23 24 24 25 25 25 26 26
2 4 10 7 6 5 4 2 4 3 11 11 14 21 25 27 28 25 21 18 14 10 6 3 1 3 4 6 6 7 8 9 10 12 13 14 15 16 17 18 19 21 23 24 26 26 27 27 27
4 5 5 1 2 3 4 2 3 8 7 10 13 20 26 28 26 23 21 18 14 9 4 1 2 3 4 5 5 6 6 8 9 11 12 13 13 14 16 18 20 21 22 24 25 26 27 28 28
2 1 2 1 5 2 3 2 0 1 10 11 13 19 25 25 24 22 21 17 13 8 4 2 3 3 4 5 5 5 6 7 7 7 8 9 11 13 14 16 18 20 22 24 26 27 27 27 28
3 3 2 3 2 3 2 3 0 3 11 12 15 18 21 23 23 22 18 15 13 9 5 3 2 3 4 4 4 4 4 4 4 6 7 10 11 13 15 17 19 21 23 25 27 28 28 29 29
2 2 2 5 1 3 6 9 6 3 10 14 17 19 22 24 24 22 20 17 13 9 7 4 3 3 3 2 1 1 2 3 4 5 7 8 10 12 14 16 18 20 23 26 29 30 29 28 29
2 3 8 9 9 4 6 4 8 3 6 10 15 17 17 20 24 25 23 19 14 11 7 4 4 3 3 2 1 2 2 3 4 5 7 8 10 11 13 14 16 19 21 24 27 30 32 29 30
4 8 10 9 8 5 6 8 11 5 4 12 18 18 20 24 27 27 24 20 15 10 6 5 4 2 1 2 2 2 1 4 5 7 8 9 11 12 13 15 16 17 19 20 24 29 32 30 26
9 9 8 9 4 2 5 9 4 3 3 4 8 15 20 28 31 29 26 22 16 11 8 6 3 3 3 2 2 1 2 4 5 6 8 9 11 12 13 14 16 16 17 19 22 26 29 29 25
5 10 12 8 4 6 3 7 5 4 5 2 3 13 18 20 22 26 26 20 15 13 10 6 4 4 4 5 4 3 1 2 4 5 7 9 11 12 13 13 13 14 16 18 21 23 27 27 26
3 2 3 2 2 2 2 5 2 2 7 5 3 7 14 20 26 29 26 20 17 15 11 6 5 5 5 4 3 2 2 2 3 6 8 9 10 10 10 11 12 13 15 17 19 21 24 26 25
4 3 5 3 2 6 10 8 2 4 3 1 3 9 15 20 25 27 24 23 21 17 13 9 8 8 5 4 2 1 1 3 4 5 6 7 8 9 11 12 13 13 14 15 17 18 20 23 24
1 2 3 2 3 5 2 5 9 4 3 4 7 13 16 20 25 31 31 28 25 21 16 11 11 7 6 3 2 1 1 2 3 5 6 6 8 10 11 12 13 14 15 16 16 17 18 20 22
6 7 4 5 4 7 2 6 3 2 4 4 5 9 13 18 23 31 31 29 26 19 15 14 9 6 4 4 4 2 1 2 3 4 6 7 9 11 13 13 13 13 14 14 15 16 17 18 19
3 4 2 5 1 4 4 6 3 3 6 5 6 10 15 19 23 28 31 29 24 20 17 13 8 7 6 5 4 2 1 2 3 4 5 7 9 10 11 11 12 13 14 14 15 16 18 18 19
4 4 2 1 4 6 5 9 8 5 8 9 9 18 19 22 25 29 30 28 25 21 18 14 11 8 7 5 4 3 2 1 3 4 5 6 7 8 9 10 12 13 13 15 16 17 19 19 20
2 2 2 2 3 6 8 7 4 5 6 7 12 21 24 23 28 29 29 27 25 23 20 16 12 9 9 9 8 6 3 2 3 4 4 5 6 7 8 10 11 12 14 16 17 18 19 20 20
2 3 5 3 6 3 3 14 2 4 7 7 13 14 17 23 25 26 27 27 28 26 23 19 15 14 12 11 8 5 3 2 3 3 4 5 6 7 7 9 10 12 14 16 17 18 19 20 21
Wind_Direction
329 333 325 146 222 323 244 220 302 243 201 313 147 191 163 78 143 161 157 173 177 185 182 173 166 164 168 174 169 164 164 161 159 158 167 169 173 185 195 199 201 211 224 233 239 254 260 260 263
332 332 190 114 177 218 188 263 280 265 138 123 97 97 74 94 108 144 155 165 179 182 182 173 178 181 173 178 182 169 173 166 165 167 189 200 205 208 207 214 226 227 254 270 264 264 269 265 266
324 321 171 94 113 231 216 208 136 131 132 170 112 85 101 121 148 158 160 162 168 179 179 183 187 181 181 182 177 182 194 184 191 191 201 209 225 237 242 247 248 246 245 244 253 258 262 265 263
301 158 60 174 236 242 231 207 207 155 149 150 137 94 105 146 157 157 158 161 167 175 187 188 184 184 183 192 193 193 197 191 199 220 244 251 251 255 255 256 259 260 259 262 263 264 266 267 265
243 120 111 135 254 267 232 274 210 191 151 136 147 136 102 155 165 162 163 162 176 191 211 197 191 188 186 192 185 185 177 172 188 209 244 252 261 264 267 269 272 274 272 272 272 271 272 269 267
115 82 154 231 243 264 296 308 184 193 156 154 127 132 133 176 168 160 160 168 167 185 195 190 184 188 189 187 180 185 184 187 227 246 253 266 282 285 283 283 282 282 284 285 284 282 278 274 271
150 147 209 203 267 299 330 351 127 142 135 205 143 111 137 165 172 164 166 167 166 172 179 174 177 185 185 184 184 197 206 229 246 260 284 297 291 289 289 288 286 287 288 287 285 284 284 282 279
145 108 165 224 200 232 279 109 123 144 152 162 164 171 170 180 176 169 167 167 170 176 179 184 180 182 188 201 202 214 227 238 249 272 286 289 289 293 297 296 297 296 290 286 288 288 285 284 282
157 120 219 211 171 262 358 151 127 138 134 180 204 195 209 180 175 175 173 175 178 174 178 189 185 192 200 208 223 234 243 260 278 289 296 297 302 306 306 305 302 299 296 293 287 282 283 279 279
154 173 213 204 198 287 321 345 145 154 158 217 214 200 182 179 177 178 174 180 175 181 186 189 190 200 217 237 260 284 286 286 297 303 307 310 310 309 310 310 308 306 303 299 295 290 284 280 278
135 218 196 186 167 289 267 290 184 153 206 202 206 180 173 178 178 178 175 178 180 178 175 172 178 192 217 252 266 277 292 302 303 304 305 305 307 309 309 308 305 304 303 301 298 292 290 284 280
300 259 247 304 210 327 253 210 263 210 216 236 242 203 177 178 178 180 180 176 173 168 166 167 173 187 241 278 297 300 301 302 303 303 305 306 306 308 310 310 311 312 312 309 307 304 298 291 286
198 296 288 294 297 300 243 248 240 247 257 261 234 190 181 177 177 180 180 176 174 172 168 163 172 262 279 282 286 289 294 296 299 304 311 315 320 321 322 322 322 321 319 317 314 310 305 300 293
286 282 281 277 270 257 260 249 185 280 239 222 198 184 179 179 181 178 177 176 172 167 156 153 219 280 292 297 298 299 301 306 312 316 321 326 329 331 334 336 334 333 329 326 322 318 314 308 301
297 299 308 191 328 194 199 240 214 285 214 176 174 175 179 183 185 187 182 183 179 170 158 182 277 293 293 291 292 297 305 320 330 335 339 341 345 348 349 348 346 345 343 340 336 330 324 318 310
316 11 313 41 352 24 190 235 306 323 172 166 173 177 181 183 186 187 186 183 172 167 178 223 276 290 299 306 310 320 334 343 346 351 357 359 360 1 2 2 0 359 356 353 348 343 339 329 320
32 283 280 311 355 332 1 280 99 133 174 173 179 180 181 180 185 187 184 181 177 178 191 228 258 290 299 303 316 333 348 2 16 23 16 11 9 10 9 9 9 7 6 5 2 359 351 343 334
290 271 249 268 236 337 302 276 278 183 193 192 187 187 186 185 185 186 186 185 184 188 202 205 248 272 266 264 292 357 36 60 51 25 17 14 10 11 12 10 9 8 7 8 9 8 2 354 346
287 268 285 280 270 271 255 262 276 284 211 204 201 192 184 180 186 190 191 191 191 197 201 208 244 245 223 208 186 134 107 70 32 19 15 7 6 5 2 1 1 3 6 9 11 11 9 3 353
261 284 274 280 287 230 265 254 257 271 210 217 203 194 187 191 191 193 192 189 191 200 196 214 231 246 232 196 174 149 65 19 10 4 359 359 356 350 348 349 353 359 4 7 11 13 13 15 4
259 255 260 271 305 251 296 271 228 129 113 35 217 217 204 199 192 190 188 188 188 192 200 212 221 217 219 204 198 269 340 346 347 348 351 352 348 345 347 347 349 354 1 6 10 14 15 15 18
259 230 236 251 220 269 338 292 267 213 190 73 164 192 197 195 190 188 188 184 188 201 209 209 211 214 216 203 199 215 263 314 331 352 358 355 354 354 351 348 348 351 360 5 9 14 16 16 14
242 86 168 175 223 308 233 266 260 267 230 169 169 190 197 198 198 194 189 189 198 207 209 208 215 224 217 214 220 259 331 329 1 10 4 2 357 358 360 5 9 8 9 10 11 16 18 18 16
144 91 54 61 110 257 246 237 263 207 210 127 181 194 195 197 199 197 192 195 204 204 203 210 218 212 199 211 229 328 4 11 14 14 14 16 10 12 16 18 17 18 19 20 20 20 19 21 19
201 298 292 256 206 263 153 202 258 201 217 242 243 205 197 196 194 194 196 199 205 202 202 205 205 188 187 183 200 216 20 18 20 27 19 27 25 27 29 28 26 26 25 24 23 21 22 22 23
196 201 204 248 253 284 173 240 234 141 260 277 251 205 195 194 197 198 201 201 202 201 204 207 193 194 191 190 193 174 134 53 31 26 33 32 33 34 34 32 30 30 30 29 28 28 26 24 26
155 191 198 251 254 263 248 281 249 264 261 231 206 191 198 196 197 200 203 206 205 206 208 199 199 209 204 194 180 157 97 28 22 38 41 40 42 42 39 36 35 35 35 35 33 34 33 32 33
210 136 171 167 259 263 266 276 246 255 254 218 220 209 205 202 200 204 210 210 210 209 208 200 208 208 206 193 198 211 226 61 55 52 50 52 52 49 47 44 42 42 43 42 40 41 40 40 40
188 198 111 175 205 255 282 263 214 260 297 240 237 222 212 205 208 211 213 213 213 209 208 207 212 216 213 208 205 197 182 98 62 63 65 67 64 59 56 53 51 53 51 48 45 46 45 44 42
268 229 183 214 248 220 256 269 145 273 289 261 273 248 232 224 222 219 220 218 213 210 207 209 213 211 202 200 192 185 181 126 91 84 85 82 75 66 62 59 56 58 58 53 50 47 45 45 43